Location: Unspecified
(0.0000°N, 0.0000°E)
Time: 22:50:48
(UTC+00:00)

S-56A Canister/Altair - All Passes

Search period start: 30 October 2014 00:00
Search period end: 09 November 2014 00:00
Orbit: 632 x 2503 km, 38.9° (Epoch: 29 October)

Date Brightness Start Highest point End Pass type
(mag) Time Alt. Az. Time Alt. Az. Time Alt. Az.
30 Oct - 00:15:34 10° NNW 00:22:40 22° NNE 00:28:04 10° ENE night (unlit)
30 Oct - 02:20:07 10° NW 02:28:05 79° SW 02:33:28 10° SE visible
30 Oct - 12:52:54 10° SSW 13:01:20 46° SE 13:13:26 10° ENE daylight
30 Oct - 14:56:37 10° WSW 15:07:06 56° NW 15:21:18 10° NE daylight
30 Oct - 17:06:44 10° WNW 17:15:33 20° NNW 17:25:12 10° NNE daylight
30 Oct - 23:42:49 10° NNW 23:49:59 20° NNE 23:55:31 10° ENE night (unlit)
31 Oct - 01:47:10 10° NW 01:55:53 85° NE 02:01:36 10° SE visible
31 Oct - 03:57:44 10° WSW 03:59:20 11° SW 04:00:49 10° SSW visible
31 Oct - 12:21:09 10° SSW 12:28:48 38° SE 12:39:42 10° ENE daylight
31 Oct - 14:24:12 10° WSW 14:34:09 63° NW 14:48:10 10° NE daylight
31 Oct - 16:33:08 10° WNW 16:42:13 22° NNW 16:52:34 10° NNE daylight
31 Oct - 23:10:03 10° NNW 23:17:11 19° NNE 23:22:51 10° ENE night (unlit)
01 Nov - 01:14:11 10° NW 01:23:35 72° NE 01:29:41 10° ESE night (unlit)
01 Nov - 03:23:16 10° W 03:27:11 16° SW 03:30:29 10° S visible
01 Nov - 11:49:32 10° SSW 11:56:22 31° SE 12:05:51 10° ENE daylight
01 Nov - 13:51:55 10° WSW 14:01:17 71° NW 14:14:59 10° NE daylight
01 Nov - 15:59:49 10° W 16:08:58 24° NNW 16:19:49 10° NNE daylight
01 Nov - 22:37:16 10° N 22:44:18 17° NNE 22:50:02 10° ENE night (unlit)
02 Nov - 00:41:11 10° NW 00:51:11 61° NE 00:57:41 10° ESE night (unlit)
02 Nov - 02:49:31 10° W 02:55:03 22° SW 02:59:22 10° S visible
02 Nov - 11:18:05 10° S 11:24:00 24° SE 11:31:53 10° E daylight
02 Nov - 13:19:45 10° SW 13:28:32 79° NW 13:41:45 10° NE daylight
02 Nov - 15:26:43 10° W 15:35:47 27° NNW 15:46:58 10° NNE daylight
02 Nov - 22:04:29 10° N 22:11:19 16° NNE 22:17:02 10° ENE visible
03 Nov - 00:08:10 10° NW 00:18:41 53° NE 00:25:36 10° ESE night (unlit)
03 Nov - 02:15:57 10° WNW 02:22:55 29° SW 02:28:01 10° SSE visible
03 Nov - 10:46:52 10° S 10:51:40 19° SE 10:57:43 10° E daylight
03 Nov - 12:47:41 10° SW 12:55:53 90° NW 13:08:28 10° NE daylight
03 Nov - 14:53:49 10° W 15:02:41 29° NNW 15:14:04 10° NNE daylight
03 Nov - 21:31:43 10° N 21:38:13 15° NNE 21:43:49 10° NE visible
03 Nov - 23:35:08 10° NNW 23:46:05 47° NE 23:53:26 10° ESE night (unlit)
04 Nov - 01:42:28 10° WNW 01:50:45 38° SW 01:56:29 10° SSE night (unlit)
04 Nov - 10:16:08 10° SSE 10:19:22 13° SE 10:23:08 10° ESE daylight
04 Nov - 12:15:42 10° SW 12:23:20 79° SE 12:35:09 10° NE daylight
04 Nov - 14:21:06 10° W 14:29:39 32° NNW 14:41:06 10° NNE daylight
04 Nov - 16:36:33 10° NNW 16:39:18 11° NNW 16:42:08 10° N daylight
04 Nov - 20:59:01 10° N 21:05:01 14° NNE 21:10:21 10° NE visible
04 Nov - 23:02:05 10° NNW 23:13:23 42° NE 23:21:10 10° ESE night (unlit)
05 Nov - 01:09:02 10° WNW 01:18:31 48° SW 01:24:51 10° SSE night (unlit)
05 Nov - 11:43:49 10° SW 11:50:54 66° SE 12:01:48 10° NE daylight
05 Nov - 13:48:31 10° W 13:56:44 35° NNW 14:08:06 10° NNE daylight
05 Nov - 16:01:51 10° NW 16:05:52 12° NNW 16:10:09 10° N daylight
05 Nov - 20:26:27 10° N 20:31:44 13° NNE 20:36:34 10° NE visible
05 Nov - 22:29:03 10° NNW 22:40:36 38° NE 22:48:47 10° E visible
06 Nov - 00:35:38 10° WNW 00:46:12 59° SW 00:53:06 10° SE night (unlit)
06 Nov - 11:12:02 10° SSW 11:18:33 54° SE 11:28:26 10° ENE daylight
06 Nov - 13:16:05 10° W 13:23:54 39° NW 13:35:05 10° NNE daylight
06 Nov - 15:27:48 10° NW 15:32:32 13° NNW 15:37:44 10° N daylight
06 Nov - 19:54:07 10° N 19:58:20 12° NNE 20:02:20 10° NE visible
06 Nov - 21:56:02 10° NNW 22:07:42 35° NNE 22:16:17 10° E visible
07 Nov - 00:02:15 10° NW 00:13:48 71° SW 00:21:16 10° SE night (unlit)
07 Nov - 02:15:35 10° WSW 02:17:43 11° SW 02:19:41 10° SSW night (unlit)
07 Nov - 10:40:21 10° SSW 10:46:17 43° SE 10:55:03 10° ENE daylight
07 Nov - 12:43:46 10° WSW 12:51:10 43° NW 13:02:03 10° NNE daylight
07 Nov - 14:54:10 10° NW 14:59:17 14° NNW 15:05:07 10° N daylight
07 Nov - 19:22:23 10° N 19:24:52 11° NNE 19:27:17 10° NNE visible
07 Nov - 21:23:03 10° NNW 21:34:43 31° NNE 21:43:38 10° E visible
07 Nov - 23:28:54 10° NW 23:41:17 83° SW 23:49:20 10° SE night (unlit)
08 Nov - 01:40:22 10° W 01:45:25 16° SW 01:49:34 10° S night (unlit)
08 Nov - 10:08:45 10° SSW 10:14:06 34° SE 10:21:37 10° ENE daylight
08 Nov - 12:11:33 10° WSW 12:18:32 48° NW 12:29:02 10° NE daylight
08 Nov - 14:20:48 10° NW 14:26:09 15° NNW 14:32:24 10° N daylight
08 Nov - 20:50:06 10° NNW 21:01:39 29° NNE 21:10:49 10° E visible
08 Nov - 22:55:35 10° NW 23:08:40 86° NE 23:17:19 10° SE night (unlit)
